Year,Month,Day,Hour,Minute,Value (Times are PST for temperature in C)
2012,07,14,00,00,18.70
2012,07,14,00,01,18.70
2012,07,14,00,02,18.60
2012,07,14,00,03,18.60
2012,07,14,00,04,18.60
2012,07,14,00,05,18.60
2012,07,14,00,06,18.60
2012,07,14,00,07,18.60
2012,07,14,00,08,18.60
2012,07,14,00,09,18.60
2012,07,14,00,10,18.60
2012,07,14,00,11,18.60
2012,07,14,00,12,18.60
2012,07,14,00,13,18.60
2012,07,14,00,14,18.60
2012,07,14,00,15,18.60
2012,07,14,00,16,18.50
2012,07,14,00,17,18.50
2012,07,14,00,18,18.50
2012,07,14,00,19,18.50
2012,07,14,00,20,18.50
2012,07,14,00,21,18.40
2012,07,14,00,22,18.40
2012,07,14,00,23,18.40
2012,07,14,00,24,18.40
2012,07,14,00,25,18.40
2012,07,14,00,26,18.40
2012,07,14,00,27,18.30
2012,07,14,00,28,18.30
2012,07,14,00,29,18.30
2012,07,14,00,30,18.30
2012,07,14,00,31,18.30
2012,07,14,00,32,18.30
2012,07,14,00,33,18.30
2012,07,14,00,34,18.30
2012,07,14,00,35,18.30
2012,07,14,00,36,18.20
2012,07,14,00,37,18.20
2012,07,14,00,38,18.20
2012,07,14,00,39,18.20
2012,07,14,00,40,18.20
2012,07,14,00,41,18.20
2012,07,14,00,42,18.20
2012,07,14,00,43,18.20
2012,07,14,00,44,18.20
2012,07,14,00,45,18.20
2012,07,14,00,46,18.20
2012,07,14,00,47,18.20
2012,07,14,00,48,18.20
2012,07,14,00,49,18.20
2012,07,14,00,50,18.20
2012,07,14,00,51,18.20
2012,07,14,00,52,18.20
2012,07,14,00,53,18.20
2012,07,14,00,54,18.20
2012,07,14,00,55,18.20
2012,07,14,00,56,18.20
2012,07,14,00,57,18.20
2012,07,14,00,58,18.20
2012,07,14,00,59,18.20
2012,07,14,01,00,18.20
2012,07,14,01,01,18.20
2012,07,14,01,02,18.20
2012,07,14,01,03,18.10
2012,07,14,01,04,18.10
2012,07,14,01,05,18.10
2012,07,14,01,06,18.10
2012,07,14,01,07,18.10
2012,07,14,01,08,18.10
2012,07,14,01,09,18.10
2012,07,14,01,10,18.10
2012,07,14,01,11,18.10
2012,07,14,01,12,18.10
2012,07,14,01,13,18.00
2012,07,14,01,14,18.00
2012,07,14,01,15,18.00
2012,07,14,01,16,18.00
2012,07,14,01,17,18.00
2012,07,14,01,18,18.00
2012,07,14,01,19,18.00
2012,07,14,01,20,18.00
2012,07,14,01,21,18.00
2012,07,14,01,22,18.00
2012,07,14,01,23,18.00
2012,07,14,01,24,17.90
2012,07,14,01,25,17.90
2012,07,14,01,26,17.90
2012,07,14,01,27,17.90
2012,07,14,01,28,17.90
2012,07,14,01,29,17.90
2012,07,14,01,30,17.90
2012,07,14,01,31,17.90
2012,07,14,01,32,17.80
2012,07,14,01,33,17.80
2012,07,14,01,34,17.80
2012,07,14,01,35,17.80
2012,07,14,01,36,17.80
2012,07,14,01,37,17.80
2012,07,14,01,38,17.80
2012,07,14,01,39,17.80
2012,07,14,01,40,17.80
2012,07,14,01,41,17.80
2012,07,14,01,42,17.80
2012,07,14,01,43,17.80
2012,07,14,01,44,17.80
2012,07,14,01,45,17.80
2012,07,14,01,46,17.80
2012,07,14,01,47,17.80
2012,07,14,01,48,17.80
2012,07,14,01,49,17.80
2012,07,14,01,50,17.70
2012,07,14,01,51,17.70
2012,07,14,01,52,17.70
2012,07,14,01,53,17.70
2012,07,14,01,54,17.70
2012,07,14,01,55,17.70
2012,07,14,01,56,17.70
2012,07,14,01,57,17.70
2012,07,14,01,58,17.70
2012,07,14,01,59,17.60
2012,07,14,02,00,17.60
2012,07,14,02,01,17.60
2012,07,14,02,02,17.60
2012,07,14,02,03,17.50
2012,07,14,02,04,17.50
2012,07,14,02,05,17.50
2012,07,14,02,06,17.40
2012,07,14,02,07,17.40
2012,07,14,02,08,17.40
2012,07,14,02,09,17.40
2012,07,14,02,10,17.30
2012,07,14,02,11,17.30
2012,07,14,02,12,17.30
2012,07,14,02,13,17.30
2012,07,14,02,14,17.30
2012,07,14,02,15,17.30
2012,07,14,02,16,17.20
2012,07,14,02,17,17.20
2012,07,14,02,18,17.20
2012,07,14,02,19,17.20
2012,07,14,02,20,17.20
2012,07,14,02,21,17.20
2012,07,14,02,22,17.10
2012,07,14,02,23,17.10
2012,07,14,02,24,17.10
2012,07,14,02,25,17.10
2012,07,14,02,26,17.10
2012,07,14,02,27,17.10
2012,07,14,02,28,17.10
2012,07,14,02,29,17.10
2012,07,14,02,30,17.00
2012,07,14,02,31,17.00
2012,07,14,02,32,17.00
2012,07,14,02,33,17.00
2012,07,14,02,34,17.00
2012,07,14,02,35,16.90
2012,07,14,02,36,16.90
2012,07,14,02,37,16.90
2012,07,14,02,38,16.90
2012,07,14,02,39,16.90
2012,07,14,02,40,16.90
2012,07,14,02,41,16.90
2012,07,14,02,42,16.90
2012,07,14,02,43,16.80
2012,07,14,02,44,16.80
2012,07,14,02,45,16.80
2012,07,14,02,46,16.80
2012,07,14,02,47,16.80
2012,07,14,02,48,16.80
2012,07,14,02,49,16.70
2012,07,14,02,50,16.70
2012,07,14,02,51,16.70
2012,07,14,02,52,16.70
2012,07,14,02,53,16.70
2012,07,14,02,54,16.70
2012,07,14,02,55,16.70
2012,07,14,02,56,16.60
2012,07,14,02,57,16.60
2012,07,14,02,58,16.60
2012,07,14,02,59,16.60
2012,07,14,03,00,16.60
2012,07,14,03,01,16.60
2012,07,14,03,02,16.60
2012,07,14,03,03,16.60
2012,07,14,03,04,16.60
2012,07,14,03,05,16.60
2012,07,14,03,06,16.60
2012,07,14,03,07,16.60
2012,07,14,03,08,16.60
2012,07,14,03,09,16.60
2012,07,14,03,10,16.50
2012,07,14,03,11,16.50
2012,07,14,03,12,16.50
2012,07,14,03,13,16.50
2012,07,14,03,14,16.50
2012,07,14,03,15,16.40
2012,07,14,03,16,16.40
2012,07,14,03,17,16.40
2012,07,14,03,18,16.40
2012,07,14,03,19,16.40
2012,07,14,03,20,16.30
2012,07,14,03,21,16.30
2012,07,14,03,22,16.30
2012,07,14,03,23,16.30
2012,07,14,03,24,16.30
2012,07,14,03,25,16.30
2012,07,14,03,26,16.20
2012,07,14,03,27,16.20
2012,07,14,03,28,16.20
2012,07,14,03,29,16.20
2012,07,14,03,30,16.20
2012,07,14,03,31,16.10
2012,07,14,03,32,16.10
2012,07,14,03,33,16.10
2012,07,14,03,34,16.10
2012,07,14,03,35,16.10
2012,07,14,03,36,16.10
2012,07,14,03,37,16.10
2012,07,14,03,38,16.10
2012,07,14,03,39,16.10
2012,07,14,03,40,16.10
2012,07,14,03,41,16.10
2012,07,14,03,42,16.10
2012,07,14,03,43,16.10
2012,07,14,03,44,16.10
2012,07,14,03,45,16.10
2012,07,14,03,46,16.10
2012,07,14,03,47,16.10
2012,07,14,03,48,16.10
2012,07,14,03,49,16.10
2012,07,14,03,50,16.00
2012,07,14,03,51,16.00
2012,07,14,03,52,16.00
2012,07,14,03,53,16.00
2012,07,14,03,54,16.00
2012,07,14,03,55,16.00
2012,07,14,03,56,16.00
2012,07,14,03,57,16.00
2012,07,14,03,58,16.00
2012,07,14,03,59,16.00
2012,07,14,04,00,16.00
2012,07,14,04,01,16.00
2012,07,14,04,02,15.90
2012,07,14,04,03,15.90
2012,07,14,04,04,15.90
2012,07,14,04,05,15.90
2012,07,14,04,06,15.90
2012,07,14,04,07,15.90
2012,07,14,04,08,15.90
2012,07,14,04,09,15.90
2012,07,14,04,10,15.90
2012,07,14,04,11,15.90
2012,07,14,04,12,15.90
2012,07,14,04,13,15.90
2012,07,14,04,14,15.90
2012,07,14,04,15,15.80
2012,07,14,04,16,15.80
2012,07,14,04,17,15.80
2012,07,14,04,18,15.80
2012,07,14,04,19,15.80
2012,07,14,04,20,15.80
2012,07,14,04,21,15.80
2012,07,14,04,22,15.70
2012,07,14,04,23,15.70
2012,07,14,04,24,15.70
2012,07,14,04,25,15.70
2012,07,14,04,26,15.70
2012,07,14,04,27,15.70
2012,07,14,04,28,15.70
2012,07,14,04,29,15.70
2012,07,14,04,30,15.60
2012,07,14,04,31,15.60
2012,07,14,04,32,15.60
2012,07,14,04,33,15.60
2012,07,14,04,34,15.60
2012,07,14,04,35,15.60
2012,07,14,04,36,15.60
2012,07,14,04,37,15.60
2012,07,14,04,38,15.50
2012,07,14,04,39,15.50
2012,07,14,04,40,15.50
2012,07,14,04,41,15.40
2012,07,14,04,42,15.40
2012,07,14,04,43,15.40
2012,07,14,04,44,15.40
2012,07,14,04,45,15.30
2012,07,14,04,46,15.30
2012,07,14,04,47,15.30
2012,07,14,04,48,15.30
2012,07,14,04,49,15.20
2012,07,14,04,50,15.20
2012,07,14,04,51,15.20
2012,07,14,04,52,15.20
2012,07,14,04,53,15.20
2012,07,14,04,54,15.20
2012,07,14,04,55,15.20
2012,07,14,04,56,15.10
2012,07,14,04,57,15.10
2012,07,14,04,58,15.10
2012,07,14,04,59,15.10
2012,07,14,05,00,15.10
2012,07,14,05,01,15.10
2012,07,14,05,02,15.10
2012,07,14,05,03,15.10
2012,07,14,05,04,15.10
2012,07,14,05,05,15.10
2012,07,14,05,06,15.10
2012,07,14,05,07,15.10
2012,07,14,05,08,15.10
2012,07,14,05,09,15.10
2012,07,14,05,10,15.00
2012,07,14,05,11,15.00
2012,07,14,05,12,15.00
2012,07,14,05,13,15.00
2012,07,14,05,14,15.00
2012,07,14,05,15,15.00
2012,07,14,05,16,15.00
2012,07,14,05,17,15.00
2012,07,14,05,18,15.00
2012,07,14,05,19,15.00
2012,07,14,05,20,15.00
2012,07,14,05,21,15.00
2012,07,14,05,22,15.00
2012,07,14,05,23,15.00
2012,07,14,05,24,14.90
2012,07,14,05,25,14.90
2012,07,14,05,26,14.90
2012,07,14,05,27,14.90
2012,07,14,05,28,14.90
2012,07,14,05,29,14.90
2012,07,14,05,30,14.90
2012,07,14,05,31,14.90
2012,07,14,05,32,14.90
2012,07,14,05,33,14.90
2012,07,14,05,34,14.90
2012,07,14,05,35,14.90
2012,07,14,05,36,14.90
2012,07,14,05,37,14.90
2012,07,14,05,38,14.80
2012,07,14,05,39,14.80
2012,07,14,05,40,14.80
2012,07,14,05,41,14.80
2012,07,14,05,42,14.80
2012,07,14,05,43,14.80
2012,07,14,05,44,14.80
2012,07,14,05,45,14.80
2012,07,14,05,46,14.80
2012,07,14,05,47,14.70
2012,07,14,05,48,14.70
2012,07,14,05,49,14.70
2012,07,14,05,50,14.70
2012,07,14,05,51,14.70
2012,07,14,05,52,14.70
2012,07,14,05,53,14.70
2012,07,14,05,54,14.70
2012,07,14,05,55,14.70
2012,07,14,05,56,14.70
2012,07,14,05,57,14.70
2012,07,14,05,58,14.70
2012,07,14,05,59,14.70
2012,07,14,06,00,14.70
2012,07,14,06,01,14.70
2012,07,14,06,02,14.70
2012,07,14,06,03,14.70
2012,07,14,06,04,14.70
2012,07,14,06,05,14.70
2012,07,14,06,06,14.70
2012,07,14,06,07,14.70
2012,07,14,06,08,14.70
2012,07,14,06,09,14.70
2012,07,14,06,10,14.70
2012,07,14,06,11,14.70
2012,07,14,06,12,14.70
2012,07,14,06,13,14.70
2012,07,14,06,14,14.70
2012,07,14,06,15,14.70
2012,07,14,06,16,14.70
2012,07,14,06,17,14.70
2012,07,14,06,18,14.70
2012,07,14,06,19,14.70
2012,07,14,06,20,14.70
2012,07,14,06,21,14.80
2012,07,14,06,22,14.80
2012,07,14,06,23,14.80
2012,07,14,06,24,14.80
2012,07,14,06,25,14.80
2012,07,14,06,26,14.80
2012,07,14,06,27,14.80
2012,07,14,06,28,14.80
2012,07,14,06,29,14.80
2012,07,14,06,30,14.80
2012,07,14,06,31,14.90
2012,07,14,06,32,14.90
2012,07,14,06,33,14.90
2012,07,14,06,34,14.90
2012,07,14,06,35,14.90
2012,07,14,06,36,14.90
2012,07,14,06,37,15.00
2012,07,14,06,38,15.00
2012,07,14,06,39,15.00
2012,07,14,06,40,15.00
2012,07,14,06,41,15.00
2012,07,14,06,42,15.10
2012,07,14,06,43,15.10
2012,07,14,06,44,15.10
2012,07,14,06,45,15.10
2012,07,14,06,46,15.10
2012,07,14,06,47,15.10
2012,07,14,06,48,15.10
2012,07,14,06,49,15.10
2012,07,14,06,50,15.10
2012,07,14,06,51,15.10
2012,07,14,06,52,15.10
2012,07,14,06,53,15.10
2012,07,14,06,54,15.10
2012,07,14,06,55,15.10
2012,07,14,06,56,15.10
2012,07,14,06,57,15.10
2012,07,14,06,58,15.20
2012,07,14,06,59,15.20
2012,07,14,07,00,15.20
2012,07,14,07,01,15.20
2012,07,14,07,02,15.20
2012,07,14,07,03,15.20
2012,07,14,07,04,15.20
2012,07,14,07,05,15.20
2012,07,14,07,06,15.20
2012,07,14,07,07,15.20
2012,07,14,07,08,15.20
2012,07,14,07,09,15.20
2012,07,14,07,10,15.20
2012,07,14,07,11,15.20
2012,07,14,07,12,15.30
2012,07,14,07,13,15.30
2012,07,14,07,14,15.30
2012,07,14,07,15,15.30
2012,07,14,07,16,15.30
2012,07,14,07,17,15.30
2012,07,14,07,18,15.30
2012,07,14,07,19,15.30
2012,07,14,07,20,15.30
2012,07,14,07,21,15.40
2012,07,14,07,22,15.40
2012,07,14,07,23,15.40
2012,07,14,07,24,15.40
2012,07,14,07,25,15.40
2012,07,14,07,26,15.50
2012,07,14,07,27,15.50
2012,07,14,07,28,15.50
2012,07,14,07,29,15.60
2012,07,14,07,30,15.60
2012,07,14,07,31,15.60
2012,07,14,07,32,15.70
2012,07,14,07,33,15.70
2012,07,14,07,34,15.70
2012,07,14,07,35,15.80
2012,07,14,07,36,15.80
2012,07,14,07,37,15.80
2012,07,14,07,38,15.80
2012,07,14,07,39,15.90
2012,07,14,07,40,15.90
2012,07,14,07,41,15.90
2012,07,14,07,42,16.00
2012,07,14,07,43,16.00
2012,07,14,07,44,16.00
2012,07,14,07,45,16.10
2012,07,14,07,46,16.10
2012,07,14,07,47,16.20
2012,07,14,07,48,16.20
2012,07,14,07,49,16.30
2012,07,14,07,50,16.30
2012,07,14,07,51,16.40
2012,07,14,07,52,16.40
2012,07,14,07,53,16.50
2012,07,14,07,54,16.60
2012,07,14,07,55,16.60
2012,07,14,07,56,16.70
2012,07,14,07,57,16.80
2012,07,14,07,58,16.90
2012,07,14,07,59,16.90
2012,07,14,08,00,17.00
2012,07,14,08,01,17.10
2012,07,14,08,02,17.20
2012,07,14,08,03,17.30
2012,07,14,08,04,17.30
2012,07,14,08,05,17.40
2012,07,14,08,06,17.50
2012,07,14,08,07,17.50
2012,07,14,08,08,17.60
2012,07,14,08,09,17.60
2012,07,14,08,10,17.70
2012,07,14,08,11,17.80
2012,07,14,08,12,17.90
2012,07,14,08,13,18.00
2012,07,14,08,14,18.00
2012,07,14,08,15,18.10
2012,07,14,08,16,18.10
2012,07,14,08,17,18.20
2012,07,14,08,18,18.20
2012,07,14,08,19,18.20
2012,07,14,08,20,18.30
2012,07,14,08,21,18.30
2012,07,14,08,22,18.40
2012,07,14,08,23,18.40
2012,07,14,08,24,18.40
2012,07,14,08,25,18.50
2012,07,14,08,26,18.60
2012,07,14,08,27,18.60
2012,07,14,08,28,18.70
2012,07,14,08,29,18.80
2012,07,14,08,30,18.90
2012,07,14,08,31,18.90
2012,07,14,08,32,19.00
2012,07,14,08,33,19.00
2012,07,14,08,34,19.00
2012,07,14,08,35,19.00
2012,07,14,08,36,19.00
2012,07,14,08,37,19.00
2012,07,14,08,38,19.00
2012,07,14,08,39,19.00
2012,07,14,08,40,19.10
2012,07,14,08,41,19.10
2012,07,14,08,42,19.10
2012,07,14,08,43,19.10
2012,07,14,08,44,19.10
2012,07,14,08,45,19.20
2012,07,14,08,46,19.20
2012,07,14,08,47,19.20
2012,07,14,08,48,19.30
2012,07,14,08,49,19.30
2012,07,14,08,50,19.30
2012,07,14,08,51,19.30
2012,07,14,08,52,19.30
2012,07,14,08,53,19.30
2012,07,14,08,54,19.30
2012,07,14,08,55,19.40
2012,07,14,08,56,19.40
2012,07,14,08,57,19.40
2012,07,14,08,58,19.50
2012,07,14,08,59,19.50
2012,07,14,09,00,19.60
2012,07,14,09,01,19.60
2012,07,14,09,02,19.70
2012,07,14,09,03,19.70
2012,07,14,09,04,19.70
2012,07,14,09,05,19.70
2012,07,14,09,06,19.80
2012,07,14,09,07,19.80
2012,07,14,09,08,19.80
2012,07,14,09,09,19.80
2012,07,14,09,10,19.80
2012,07,14,09,11,19.90
2012,07,14,09,12,19.90
2012,07,14,09,13,19.90
2012,07,14,09,14,19.90
2012,07,14,09,15,19.90
2012,07,14,09,16,20.00
2012,07,14,09,17,20.00
2012,07,14,09,18,20.10
2012,07,14,09,19,20.20
2012,07,14,09,20,20.20
2012,07,14,09,21,20.30
2012,07,14,09,22,20.40
2012,07,14,09,23,20.60
2012,07,14,09,24,20.70
2012,07,14,09,25,20.70
2012,07,14,09,26,20.80
2012,07,14,09,27,20.80
2012,07,14,09,28,20.90
2012,07,14,09,29,21.00
2012,07,14,09,30,21.00
2012,07,14,09,31,21.10
2012,07,14,09,32,21.20
2012,07,14,09,33,21.30
2012,07,14,09,34,21.30
2012,07,14,09,35,21.30
2012,07,14,09,36,21.40
2012,07,14,09,37,21.40
2012,07,14,09,38,21.50
2012,07,14,09,39,21.50
2012,07,14,09,40,21.60
2012,07,14,09,41,21.70
2012,07,14,09,42,21.80
2012,07,14,09,43,21.90
2012,07,14,09,44,21.90
2012,07,14,09,45,22.00
2012,07,14,09,46,22.00
2012,07,14,09,47,22.10
2012,07,14,09,48,22.10
2012,07,14,09,49,22.10
2012,07,14,09,50,22.10
2012,07,14,09,51,22.10
2012,07,14,09,52,22.20
2012,07,14,09,53,22.10
2012,07,14,09,54,22.10
2012,07,14,09,55,22.10
2012,07,14,09,56,22.20
2012,07,14,09,57,22.20
2012,07,14,09,58,22.30
2012,07,14,09,59,22.30
2012,07,14,10,00,22.40
2012,07,14,10,01,22.50
2012,07,14,10,02,22.50
2012,07,14,10,03,22.60
2012,07,14,10,04,22.70
2012,07,14,10,05,22.80
2012,07,14,10,06,22.80
2012,07,14,10,07,22.90
2012,07,14,10,08,22.90
2012,07,14,10,09,23.00
2012,07,14,10,10,23.00
2012,07,14,10,11,23.10
2012,07,14,10,12,23.20
2012,07,14,10,13,23.30
2012,07,14,10,14,23.30
2012,07,14,10,15,23.30
2012,07,14,10,16,23.30
2012,07,14,10,17,23.40
2012,07,14,10,18,23.50
2012,07,14,10,19,23.60
2012,07,14,10,20,23.70
2012,07,14,10,21,23.80
2012,07,14,10,22,23.90
2012,07,14,10,23,24.00
2012,07,14,10,24,24.00
2012,07,14,10,25,24.00
2012,07,14,10,26,24.10
2012,07,14,10,27,24.20
2012,07,14,10,28,24.30
2012,07,14,10,29,24.30
2012,07,14,10,30,24.40
2012,07,14,10,31,24.50
2012,07,14,10,32,24.60
2012,07,14,10,33,24.70
2012,07,14,10,34,24.70
2012,07,14,10,35,24.70
2012,07,14,10,36,24.70
2012,07,14,10,37,24.80
2012,07,14,10,38,24.80
2012,07,14,10,39,24.80
2012,07,14,10,40,24.70
2012,07,14,10,41,24.70
2012,07,14,10,42,24.70
2012,07,14,10,43,24.60
2012,07,14,10,44,24.60
2012,07,14,10,45,24.60
2012,07,14,10,46,24.70
2012,07,14,10,47,24.70
2012,07,14,10,48,24.80
2012,07,14,10,49,24.90
2012,07,14,10,50,25.10
2012,07,14,10,51,25.10
2012,07,14,10,52,25.20
2012,07,14,10,53,25.20
2012,07,14,10,54,25.20
2012,07,14,10,55,25.20
2012,07,14,10,56,25.20
2012,07,14,10,57,25.30
2012,07,14,10,58,25.30
2012,07,14,10,59,25.40
2012,07,14,11,00,25.40
2012,07,14,11,01,25.50
2012,07,14,11,02,25.50
2012,07,14,11,03,25.50
2012,07,14,11,04,25.60
2012,07,14,11,05,25.60
2012,07,14,11,06,25.70
2012,07,14,11,07,25.70
2012,07,14,11,08,25.80
2012,07,14,11,09,25.80
2012,07,14,11,10,25.80
2012,07,14,11,11,25.80
2012,07,14,11,12,25.80
2012,07,14,11,13,25.80
2012,07,14,11,14,25.80
2012,07,14,11,15,25.80
2012,07,14,11,16,25.90
2012,07,14,11,17,26.00
2012,07,14,11,18,26.10
2012,07,14,11,19,26.20
2012,07,14,11,20,26.30
2012,07,14,11,21,26.40
2012,07,14,11,22,26.50
2012,07,14,11,23,26.60
2012,07,14,11,24,26.60
2012,07,14,11,25,26.60
2012,07,14,11,26,26.60
2012,07,14,11,27,26.70
2012,07,14,11,28,26.80
2012,07,14,11,29,26.80
2012,07,14,11,30,26.80
2012,07,14,11,31,26.90
2012,07,14,11,32,26.90
2012,07,14,11,33,26.90
2012,07,14,11,34,26.80
2012,07,14,11,35,26.70
2012,07,14,11,36,26.60
2012,07,14,11,37,26.50
2012,07,14,11,38,26.40
2012,07,14,11,39,26.40
2012,07,14,11,40,26.40
2012,07,14,11,41,26.40
2012,07,14,11,42,26.50
2012,07,14,11,43,26.50
2012,07,14,11,44,26.60
2012,07,14,11,45,26.60
2012,07,14,11,46,26.50
2012,07,14,11,47,26.60
2012,07,14,11,48,26.60
2012,07,14,11,49,26.70
2012,07,14,11,50,26.80
2012,07,14,11,51,26.80
2012,07,14,11,52,26.90
2012,07,14,11,53,27.00
2012,07,14,11,54,27.10
2012,07,14,11,55,27.20
2012,07,14,11,56,27.30
2012,07,14,11,57,27.40
2012,07,14,11,58,27.50
2012,07,14,11,59,27.70
2012,07,14,12,00,27.80
2012,07,14,12,01,28.00
2012,07,14,12,02,28.10
2012,07,14,12,03,28.10
2012,07,14,12,04,28.20
2012,07,14,12,05,28.20
2012,07,14,12,06,28.20
2012,07,14,12,07,28.20
2012,07,14,12,08,28.20
2012,07,14,12,09,28.20
2012,07,14,12,10,28.20
2012,07,14,12,11,28.10
2012,07,14,12,12,28.10
2012,07,14,12,13,28.10
2012,07,14,12,14,28.20
2012,07,14,12,15,28.20
2012,07,14,12,16,28.20
2012,07,14,12,17,28.20
2012,07,14,12,18,28.20
2012,07,14,12,19,28.30
2012,07,14,12,20,28.30
2012,07,14,12,21,28.20
2012,07,14,12,22,28.20
2012,07,14,12,23,28.20
2012,07,14,12,24,28.20
2012,07,14,12,25,28.20
2012,07,14,12,26,28.20
2012,07,14,12,27,28.30
2012,07,14,12,28,28.30
2012,07,14,12,29,28.30
2012,07,14,12,30,28.30
2012,07,14,12,31,28.30
2012,07,14,12,32,28.40
2012,07,14,12,33,28.40
2012,07,14,12,34,28.30
2012,07,14,12,35,28.30
2012,07,14,12,36,28.30
2012,07,14,12,37,28.30
2012,07,14,12,38,28.30
2012,07,14,12,39,28.10
2012,07,14,12,40,27.90
2012,07,14,12,41,27.80
2012,07,14,12,42,27.70
2012,07,14,12,43,27.60
2012,07,14,12,44,27.50
2012,07,14,12,45,27.40
2012,07,14,12,46,27.30
2012,07,14,12,47,27.30
2012,07,14,12,48,27.40
2012,07,14,12,49,27.40
2012,07,14,12,50,27.40
2012,07,14,12,51,27.30
2012,07,14,12,52,27.30
2012,07,14,12,53,27.20
2012,07,14,12,54,27.20
2012,07,14,12,55,27.20
2012,07,14,12,56,27.30
2012,07,14,12,57,27.40
2012,07,14,12,58,27.40
2012,07,14,12,59,27.50
2012,07,14,13,00,27.60
2012,07,14,13,01,27.70
2012,07,14,13,02,27.70
2012,07,14,13,03,27.70
2012,07,14,13,04,27.60
2012,07,14,13,05,27.50
2012,07,14,13,06,27.40
2012,07,14,13,07,27.30
2012,07,14,13,08,27.20
2012,07,14,13,09,27.30
2012,07,14,13,10,27.30
2012,07,14,13,11,27.30
2012,07,14,13,12,27.40
2012,07,14,13,13,27.40
2012,07,14,13,14,27.50
2012,07,14,13,15,27.50
2012,07,14,13,16,27.60
2012,07,14,13,17,27.70
2012,07,14,13,18,27.60
2012,07,14,13,19,27.60
2012,07,14,13,20,27.60
2012,07,14,13,21,27.70
2012,07,14,13,22,27.70
2012,07,14,13,23,27.80
2012,07,14,13,24,27.80
2012,07,14,13,25,27.80
2012,07,14,13,26,27.80
2012,07,14,13,27,27.80
2012,07,14,13,28,27.80
2012,07,14,13,29,27.70
2012,07,14,13,30,27.70
2012,07,14,13,31,27.60
2012,07,14,13,32,27.70
2012,07,14,13,33,27.80
2012,07,14,13,34,27.80
2012,07,14,13,35,27.90
2012,07,14,13,36,27.90
2012,07,14,13,37,28.00
2012,07,14,13,38,28.10
2012,07,14,13,39,28.20
2012,07,14,13,40,28.40
2012,07,14,13,41,28.40
2012,07,14,13,42,28.50
2012,07,14,13,43,28.50
2012,07,14,13,44,28.60
2012,07,14,13,45,28.70
2012,07,14,13,46,28.70
2012,07,14,13,47,28.80
2012,07,14,13,48,28.80
2012,07,14,13,49,28.80
2012,07,14,13,50,28.80
2012,07,14,13,51,28.80
2012,07,14,13,52,28.80
2012,07,14,13,53,28.80
2012,07,14,13,54,28.80
2012,07,14,13,55,28.80
2012,07,14,13,56,28.80
2012,07,14,13,57,28.80
2012,07,14,13,58,28.80
2012,07,14,13,59,28.80
2012,07,14,14,00,28.80
2012,07,14,14,01,28.90
2012,07,14,14,02,28.90
2012,07,14,14,03,29.00
2012,07,14,14,04,29.20
2012,07,14,14,05,29.30
2012,07,14,14,06,29.40
2012,07,14,14,07,29.50
2012,07,14,14,08,29.50
2012,07,14,14,09,29.50
2012,07,14,14,10,29.50
2012,07,14,14,11,29.40
2012,07,14,14,12,29.40
2012,07,14,14,13,29.40
2012,07,14,14,14,29.40
2012,07,14,14,15,29.50
2012,07,14,14,16,29.50
2012,07,14,14,17,29.50
2012,07,14,14,18,29.50
2012,07,14,14,19,29.50
2012,07,14,14,20,29.50
2012,07,14,14,21,29.50
2012,07,14,14,22,29.50
2012,07,14,14,23,29.50
2012,07,14,14,24,29.60
2012,07,14,14,25,29.60
2012,07,14,14,26,29.70
2012,07,14,14,27,29.70
2012,07,14,14,28,29.70
2012,07,14,14,29,29.70
2012,07,14,14,30,29.80
2012,07,14,14,31,29.80
2012,07,14,14,32,29.70
2012,07,14,14,33,29.60
2012,07,14,14,34,29.50
2012,07,14,14,35,29.40
2012,07,14,14,36,29.30
2012,07,14,14,37,29.30
2012,07,14,14,38,29.30
2012,07,14,14,39,29.20
2012,07,14,14,40,29.20
2012,07,14,14,41,29.20
2012,07,14,14,42,29.20
2012,07,14,14,43,29.20
2012,07,14,14,44,29.20
2012,07,14,14,45,29.20
2012,07,14,14,46,29.20
2012,07,14,14,47,29.20
2012,07,14,14,48,29.30
2012,07,14,14,49,29.30
2012,07,14,14,50,29.30
2012,07,14,14,51,29.50
2012,07,14,14,52,29.50
2012,07,14,14,53,29.50
2012,07,14,14,54,29.50
2012,07,14,14,55,29.40
2012,07,14,14,56,29.40
2012,07,14,14,57,29.30
2012,07,14,14,58,29.30
2012,07,14,14,59,29.30
2012,07,14,15,00,29.30
2012,07,14,15,01,29.30
2012,07,14,15,02,29.20
2012,07,14,15,03,29.10
2012,07,14,15,04,29.00
2012,07,14,15,05,29.00
2012,07,14,15,06,29.00
2012,07,14,15,07,28.90
2012,07,14,15,08,28.90
2012,07,14,15,09,28.80
2012,07,14,15,10,28.80
2012,07,14,15,11,28.80
2012,07,14,15,12,28.80
2012,07,14,15,13,28.80
2012,07,14,15,14,28.80
2012,07,14,15,15,28.70
2012,07,14,15,16,28.70
2012,07,14,15,17,28.70
2012,07,14,15,18,28.60
2012,07,14,15,19,28.60
2012,07,14,15,20,28.60
2012,07,14,15,21,28.60
2012,07,14,15,22,28.70
2012,07,14,15,23,28.70
2012,07,14,15,24,28.70
2012,07,14,15,25,28.70
2012,07,14,15,26,28.80
2012,07,14,15,27,28.70
2012,07,14,15,28,28.70
2012,07,14,15,29,28.70
2012,07,14,15,30,28.60
2012,07,14,15,31,28.50
2012,07,14,15,32,28.40
2012,07,14,15,33,28.30
2012,07,14,15,34,28.30
2012,07,14,15,35,28.30
2012,07,14,15,36,28.20
2012,07,14,15,37,28.20
2012,07,14,15,38,28.20
2012,07,14,15,39,28.10
2012,07,14,15,40,28.10
2012,07,14,15,41,28.10
2012,07,14,15,42,28.00
2012,07,14,15,43,28.00
2012,07,14,15,44,28.00
2012,07,14,15,45,28.10
2012,07,14,15,46,28.10
2012,07,14,15,47,28.20
2012,07,14,15,48,28.10
2012,07,14,15,49,28.10
2012,07,14,15,50,28.10
2012,07,14,15,51,28.10
2012,07,14,15,52,28.10
2012,07,14,15,53,28.10
2012,07,14,15,54,28.00
2012,07,14,15,55,28.00
2012,07,14,15,56,28.00
2012,07,14,15,57,28.10
2012,07,14,15,58,28.00
2012,07,14,15,59,27.90
2012,07,14,16,00,27.90
2012,07,14,16,01,27.80
2012,07,14,16,02,27.80
2012,07,14,16,03,27.80
2012,07,14,16,04,27.80
2012,07,14,16,05,27.90
2012,07,14,16,06,27.80
2012,07,14,16,07,27.80
2012,07,14,16,08,27.80
2012,07,14,16,09,27.80
2012,07,14,16,10,27.70
2012,07,14,16,11,27.70
2012,07,14,16,12,27.70
2012,07,14,16,13,27.70
2012,07,14,16,14,27.80
2012,07,14,16,15,27.90
2012,07,14,16,16,27.90
2012,07,14,16,17,27.90
2012,07,14,16,18,27.80
2012,07,14,16,19,27.80
2012,07,14,16,20,27.80
2012,07,14,16,21,27.80
2012,07,14,16,22,27.80
2012,07,14,16,23,27.80
2012,07,14,16,24,27.70
2012,07,14,16,25,27.70
2012,07,14,16,26,27.70
2012,07,14,16,27,27.70
2012,07,14,16,28,27.70
2012,07,14,16,29,27.60
2012,07,14,16,30,27.50
2012,07,14,16,31,27.40
2012,07,14,16,32,27.30
2012,07,14,16,33,27.30
2012,07,14,16,34,27.30
2012,07,14,16,35,27.30
2012,07,14,16,36,27.30
2012,07,14,16,37,27.30
2012,07,14,16,38,27.30
2012,07,14,16,39,27.40
2012,07,14,16,40,27.40
2012,07,14,16,41,27.40
2012,07,14,16,42,27.40
2012,07,14,16,43,27.50
2012,07,14,16,44,27.60
2012,07,14,16,45,27.60
2012,07,14,16,46,27.60
2012,07,14,16,47,27.60
2012,07,14,16,48,27.50
2012,07,14,16,49,27.40
2012,07,14,16,50,27.40
2012,07,14,16,51,27.40
2012,07,14,16,52,27.40
2012,07,14,16,53,27.40
2012,07,14,16,54,27.60
2012,07,14,16,55,27.60
2012,07,14,16,56,27.60
2012,07,14,16,57,27.60
2012,07,14,16,58,27.60
2012,07,14,16,59,27.50
2012,07,14,17,00,27.50
2012,07,14,17,01,27.50
2012,07,14,17,02,27.50
2012,07,14,17,03,27.50
2012,07,14,17,04,27.60
2012,07,14,17,05,27.50
2012,07,14,17,06,27.40
2012,07,14,17,07,27.40
2012,07,14,17,08,27.40
2012,07,14,17,09,27.40
2012,07,14,17,10,27.40
2012,07,14,17,11,27.40
2012,07,14,17,12,27.50
2012,07,14,17,13,27.60
2012,07,14,17,14,27.70
2012,07,14,17,15,27.70
2012,07,14,17,16,27.80
2012,07,14,17,17,27.80
2012,07,14,17,18,27.70
2012,07,14,17,19,27.70